Location: Arborea
(39.7744°N, 8.5819°E)
Time: 03:59:36
(UTC+00:00)

CSL-04 Debris - Pass Details

Date: 24 October 2021
Orbit: 827 x 847 km, 98.9° (Epoch: 27 November)

Event Time Altitude Azimuth Distance (km) Brightness Sun altitude
Exits shadow 18:44:18 73° 77° (ENE) 871 4.0 -25.8°
Maximum altitude 18:44:20 73° 74° (ENE) 871 4.0 -25.8°
Drops below altitude 10° 18:49:44 10° 350° (N) 2,450 6.8 -26.8°
Sets 18:52:06 0° 349° (N) 3,391 7.6 -27.2°
